Home   Weather   Hay River   Past weeks

Flag for Canada Past Weather in Hay River, Northwest Territories, Canada — Yesterday and Last 2 Weeks

Now
-8 °F

Light snow. Overcast.


Feels Like: -28 °F
Forecast: -8 / -5 °F
Wind: 14 mph from Northwest

Location: Hay River

Current Time: Dec 7, 2016 at 1:49:02 am

Latest Report: Dec 7, 2016 at 1:00 am


Visibility: 12 mi

Pressure: 30.91 "Hg

Humidity: 70%

Dew Point: -15 °F

Location of Hay RiverLocation

Past Weather in Hay River — Graph

°F

Hay River Temperature Yesterday

Maximum temperature yesterday: -2 °F (at 12:00 am)
Minimum temperature yesterday: -9 °F (at 10:00 am)
Average temperature yesterday: -7 °F

High & Low Weather Summary for the Past Weeks

 TemperatureHumidityPressure
High28 °F (Nov 25, 8:00 am)100% (Nov 25, 3:00 am)30.90 "Hg (Nov 25, 3:00 am)
Low-9 °F (Dec 6, 10:00 am)70% (Dec 6, 9:00 am)29.46 "Hg (Dec 2, 11:00 pm)
Average12 °F88%29.92 "Hg
* Reported Nov 22 12:00 am — Dec 7 12:00 am, Hay River, Weather by CustomWeather, © 2016

Note: Actual official high and low records may vary slightly from our data, if they occured in-between our weather recording intervals... More about our weather records

Advertising

Hay River Weather History for the Previous 24 Hours

Scroll right to see more
 ConditionsComfort  
Time TempWeatherWind HumidityBarometerVisibility
12:00 am
Wed, Dec 7
-8 °FLight snow. Mostly cloudy.13 mph77%30.90 "Hg12 mi
11:00 pm
Tue, Dec 6
-8 °FLight snow. Overcast.14 mph77%30.88 "Hg12 mi
10:00 pm-8 °FLight snow. Passing clouds.15 mph77%30.86 "Hg12 mi
9:00 pm-8 °FLight snow. Passing clouds.15 mph77%30.85 "Hg12 mi
8:00 pm-8 °FLight snow. Passing clouds.14 mph77%30.84 "Hg12 mi
7:00 pm-8 °FLight snow. Passing clouds.13 mph77%30.84 "Hg12 mi
5:00 pm-8 °FLight snow. Partly cloudy.17 mph77%30.81 "Hg10 mi
4:00 pm-8 °FLight snow. Overcast.17 mph77%30.80 "Hg4 mi
3:00 pm-9 °FLight snow. Low clouds.16 mph77%30.80 "Hg4 mi
2:00 pm-9 °FLight snow. More clouds than sun.16 mph77%30.79 "Hg6 mi
12:00 pm-9 °FBroken clouds.18 mph77%30.76 "Hg15 mi
10:00 am-9 °FLight snow. Broken clouds.16 mph77%30.74 "Hg12 mi
9:00 am-8 °FLight snow. Passing clouds.18 mph70%30.74 "Hg10 mi
8:00 am-8 °FLight snow. Passing clouds.21 mph77%30.73 "Hg8 mi
7:00 am-8 °FLight snow. Passing clouds.17 mph77%30.72 "Hg4 mi
6:00 am-6 °FLight snow. Mostly cloudy.20 mph77%30.71 "Hg4 mi
5:00 am-6 °FLight snow. Mostly cloudy.20 mph77%30.71 "Hg4 mi
4:00 am-6 °FLight snow. Mostly cloudy.18 mph77%30.70 "Hg4 mi
3:00 am-4 °FLight snow. Passing clouds.21 mph77%30.68 "Hg6 mi
2:00 am-2 °FLight snow. Mostly cloudy.22 mph77%30.67 "Hg2 mi
1:00 am-2 °FLight snow. Mostly cloudy.21 mph84%30.66 "Hg2 mi
Weather by CustomWeather, © 2016

See weather overviewHow to use our weather pages